Flag for Germany Weather past 2 weeks in Troisdorf, North Rhine-Westphalia, Germany

Now
68 °F

Scattered clouds.


Feels Like: 68 °F
Forecast: 56 / 77 °F
Wind: 2 mph from Northeast

Location: Koeln / Bonn

Current Time: Jul 25, 2014 at 11:18:20 AM

Latest Report: Jul 25, 2014 at 10:50 AM


Visibility: N/A

Pressure: 29.98 "Hg

Humidity: 73%

Dew point: 59 °F

Location of TroisdorfLocation

Historic Weather in Troisdorf — Graph

°F

Troisdorf temperature yesterday

Maximum temperature yesterday: 79 °F (at 12:20 PM)
Minimum temperature yesterday: 57 °F (at 5:50 AM)
Average temperature yesterday: 68 °F

Past Weeks' High & Low Weather Summary

 TemperatureHumidityPressure
High91 °F (Jul 19, 2:50 PM)100% (Jul 11, 2:50 AM)30.18 "Hg (Jul 11, 2:50 AM)
Low54 °F (Jul 25, 4:20 AM)26% (Jul 19, 2:50 PM)29.74 "Hg (Jul 13, 5:20 PM)
Average70 °F75%29.96 "Hg
* Reported Jul 10 10:20 AM — Jul 25 10:20 AM, Troisdorf, Weather by CustomWeather, © 2014

Note: Actual official high and low records may vary slightly from our data, if they occured in-between our weather recording intervals... More about our weather records

Advertising

Troisdorf weather history for previous 24 hours

 ConditionsComfort  
Time TempWeatherWind HumidityBarometerVisibility
10:20 AM
Jul 25
66 °FScattered clouds.3 mph78%29.98 "HgN/A
9:50 AM66 °FPassing clouds.2 mph78%29.98 "HgN/A
9:20 AM64 °FPassing clouds.1 mph83%29.98 "HgN/A
8:50 AM61 °FPassing clouds.2 mph94%29.98 "HgN/A
8:20 AM59 °FPassing clouds.1 mph100%29.98 "HgN/A
7:50 AM57 °FSunny.3 mph94%29.95 "Hg10 mi
7:20 AM57 °FSunny.2 mph100%29.95 "Hg10 mi
6:50 AM55 °FFog.3 mph100%29.95 "HgN/A
6:20 AM55 °FFog.3 mph100%29.95 "HgN/A
5:50 AM55 °FCool.5 mph100%29.98 "HgN/A
5:20 AM55 °FFog.6 mph100%29.98 "Hg1 mi
4:50 AM55 °FFog.2 mph100%29.98 "HgN/A
4:20 AM54 °FFog.6 mph100%29.95 "HgN/A
3:50 AM55 °FFog.3 mph94%29.95 "HgN/A
3:20 AM57 °FFog.3 mph94%29.95 "HgN/A
2:50 AM57 °FFog.5 mph100%29.98 "HgN/A
2:20 AM59 °FFog.3 mph94%29.98 "HgN/A
1:50 AM59 °FFog.2 mph94%29.98 "HgN/A
1:20 AM59 °FClear.1 mph94%29.98 "Hg10 mi
12:50 AM59 °FClear.1 mph94%29.98 "Hg10 mi
12:20 AM59 °FClear.3 mph94%29.98 "Hg10 mi
11:50 PM
Jul 24
59 °FClear.3 mph94%29.98 "Hg10 mi
11:20 PM61 °FClear.6 mph88%29.98 "Hg10 mi
10:50 PM61 °FClear.6 mph88%29.98 "Hg10 mi
10:20 PM61 °FLight rain. Broken clouds.6 mph88%29.95 "HgN/A
9:50 PM61 °FRain showers. Broken clouds.14 mph88%29.98 "HgN/A
9:20 PM63 °FSprinkles. Broken clouds.8 mph83%29.98 "HgN/A
8:50 PM64 °FThundershowers. Broken clouds.1 mph78%29.98 "HgN/A
8:20 PM64 °FThundershowers. Broken clouds.6 mph73%29.95 "HgN/A
7:50 PM66 °FThundershowers. Broken clouds.3 mph64%29.95 "HgN/A
7:20 PM68 °FScattered showers. Broken clouds.10 mph56%29.95 "HgN/A
6:50 PM70 °FThundershowers. Broken clouds.15 mph53%29.95 "HgN/A
6:20 PM70 °FThundershowers. Broken clouds.7 mph60%29.95 "HgN/A
5:50 PM72 °FScattered showers. Broken clouds.6 mph53%29.95 "HgN/A
5:20 PM73 °FScattered showers. Scattered clouds.6 mph57%29.95 "HgN/A
4:50 PM72 °FPartly sunny.7 mph57%29.95 "HgN/A
4:20 PM73 °FScattered showers. Partly sunny.2 mph65%29.95 "HgN/A
3:50 PM73 °FScattered showers. Partly sunny.5 mph61%29.95 "HgN/A
3:20 PM73 °FScattered showers. Scattered clouds.7 mph53%29.92 "HgN/A
2:50 PM75 °FThundershowers. Scattered clouds.3 mph57%29.92 "HgN/A
2:20 PM73 °FThundershowers. Scattered clouds.3 mph61%29.95 "HgN/A
1:50 PM75 °FScattered clouds.9 mph54%29.95 "HgN/A
1:20 PM79 °FScattered clouds.7 mph42%29.95 "HgN/A
12:50 PM79 °FPassing clouds.7 mph45%29.95 "HgN/A
12:20 PM79 °FPassing clouds.7 mph42%29.95 "HgN/A
11:50 AM77 °FPassing clouds.3 mph51%29.95 "HgN/A
11:20 AM75 °FPassing clouds.5 mph54%29.95 "HgN/A
Weather by CustomWeather, © 2014

See weather overviewHow to use our weather pages